Weather History for Elizabethton, TN

Change the Weather History Date:

Thursday, January 17, 2013

  Actual Average (KTRI) Record (KTRI)
Temperature  
Mean Temperature 37 °F 35 °F  
Max Temperature 44 °F 45 °F 71 °F (1943)
Min Temperature 30 °F 25 °F -8 °F (1982)
Degree Days  
Heating Degree Days 28 30  
Month to date heating degree days 510  
Since 1 July heating degree days 2239  
Cooling Degree Days 0 0  
Month to date cooling degree days 0  
Year to date cooling degree days 0  
Moisture  
Dew Point 37 °F    
Average Humidity 97    
Maximum Humidity 100    
Minimum Humidity 87    
Precipitation  
Precipitation 0.00 in 0.11 in 1.71 in (2006)
Month to date precipitation 1.82  
Year to date precipitation 1.82  
Snow  
Snow 0.00 in 0.10 in - ()
Month to date snowfall 2.5  
Since 1 July snowfall 5.2  
Snow Depth -    
Sea Level Pressure  
Sea Level Pressure 30.02 in    
Wind  
Wind Speed 4 mph (WSW)    
Max Wind Speed 10 mph    
Max Gust Speed -    
Visibility 7 miles    
Events Rain , Snow    
T = Trace of Precipitation, MM = Missing Value Source: NWS Daily Summary

Daily Weather History Graph

Daily Weather History Graph

Search for Another Location

Airport:

Trip Planner

Search our weather history database for the weather conditions in past years. The results will help you decide how hot, cold, wet, or windy it might be!

Date:

Astronomy

Jan. 17, 2013 Rise Set
Actual Time 7:38 AM EST 5:39 PM EST
Civil Twilight 7:10 AM EST 6:07 PM EST
Nautical Twilight 6:39 AM EST 6:38 PM EST
Astronomical Twilight 6:08 AM EST 7:09 PM EST
Moon 10:57 AM EST (1/17) No Moon Set
Length of Visible Light 10h 56m
Length of Day
10h 00m
Waxing Crescent, 37% of the Moon is Illuminated
Jan 17
Waxing Crescent
Jan 18
First Quarter
Jan 26
Full
Feb 3
Last Quarter
Feb 10
New

Hourly Weather History & Observations

Time (EST) Temp. Windchill Dew Point Humidity Pressure Visibility Wind Dir Wind Speed Gust Speed Precip Events Conditions
12:55 AM 44.6 °F 40.7 °F 44.6 °F 100% 30.01 in 10.0 mi West 6.9 mph - N/A   Overcast
1:15 AM 44.6 °F 40.2 °F 44.6 °F 100% 30.02 in 10.0 mi West 8.1 mph - N/A   Overcast
1:35 AM 44.6 °F 40.2 °F 44.6 °F 100% 30.03 in 10.0 mi West 8.1 mph - N/A   Overcast
1:55 AM 44.6 °F 41.4 °F 44.6 °F 100% 30.04 in 10.0 mi West 5.8 mph - N/A   Overcast
2:15 AM 44.6 °F 41.4 °F 44.6 °F 100% 30.05 in 8.0 mi WSW 5.8 mph - N/A Rain Light Rain
2:35 AM 44.6 °F 43.1 °F 44.6 °F 100% 30.04 in 8.0 mi SW 3.5 mph - N/A Rain Light Rain
2:55 AM 44.6 °F 41.4 °F 44.6 °F 100% 30.04 in 7.0 mi WSW 5.8 mph - N/A Rain Light Rain
3:15 AM 44.6 °F 43.1 °F 42.8 °F 93% 30.03 in 6.0 mi SSW 3.5 mph - N/A Rain Light Rain
3:35 AM 44.6 °F 43.1 °F 42.8 °F 93% 30.04 in 9.0 mi WSW 3.5 mph - N/A Rain Light Rain
3:55 AM 44.6 °F - 44.6 °F 100% 30.02 in 10.0 mi Calm Calm - N/A Rain Light Rain
4:35 AM 44.6 °F - 41.0 °F 87% 30.00 in 10.0 mi Calm Calm - N/A Rain Light Rain
4:55 AM 42.8 °F - 42.8 °F 100% 30.00 in 10.0 mi Calm Calm - N/A Rain Light Rain
5:15 AM 42.8 °F 41.1 °F 42.8 °F 100% 30.01 in 10.0 mi SSW 3.5 mph - N/A Rain Light Rain
5:35 AM 42.8 °F - 42.8 °F 100% 30.02 in 7.0 mi Calm Calm - N/A Rain Light Rain
5:55 AM 42.8 °F 40.1 °F 41.0 °F 93% 30.01 in 10.0 mi Variable 4.6 mph - N/A   Light Drizzle
6:15 AM 41.0 °F 37.1 °F 39.2 °F 93% 30.02 in 10.0 mi WSW 5.8 mph - N/A Rain Light Rain
6:35 AM 39.2 °F 37.0 °F 39.2 °F 100% 30.03 in 7.0 mi South 3.5 mph - N/A Rain Light Rain
6:55 AM 39.2 °F 37.0 °F 39.2 °F 100% 30.02 in 6.0 mi South 3.5 mph - N/A Rain Light Rain
7:15 AM 39.2 °F - 39.2 °F 100% 30.02 in 7.0 mi Calm Calm - N/A Rain Light Rain
7:35 AM 39.2 °F - 39.2 °F 100% 30.01 in 8.0 mi Calm Calm - N/A Rain Light Rain
7:55 AM 39.2 °F 35.9 °F 39.2 °F 100% 30.02 in 8.0 mi West 4.6 mph - N/A Rain Rain
8:15 AM 39.2 °F 37.0 °F 37.4 °F 93% 30.01 in 7.0 mi SW 3.5 mph - N/A Rain Rain
8:35 AM 37.4 °F - 37.4 °F 100% 30.02 in 10.0 mi Calm Calm - N/A   Light Drizzle
8:55 AM 39.2 °F - 37.4 °F 93% 30.02 in 4.0 mi Calm Calm - N/A Rain Heavy Rain
9:15 AM 39.2 °F - 39.2 °F 100% 30.01 in 7.0 mi Calm Calm - N/A Rain Rain
9:35 AM 39.2 °F - 39.2 °F 100% 30.00 in 6.0 mi Calm Calm - N/A Rain Heavy Rain
9:55 AM 39.2 °F - 39.2 °F 100% 30.01 in 7.0 mi Calm Calm - N/A Rain Light Rain
10:15 AM 39.2 °F 35.9 °F 39.2 °F 100% 30.00 in 4.0 mi SSW 4.6 mph - N/A Rain Rain
10:35 AM 39.2 °F - 39.2 °F 100% 29.99 in 5.0 mi Calm Calm - N/A Rain Light Rain
10:55 AM 39.2 °F 35.0 °F 39.2 °F 100% 29.99 in 10.0 mi SSW 5.8 mph - N/A   Overcast
11:15 AM 39.2 °F - 39.2 °F 100% 29.98 in 4.0 mi Calm Calm - N/A Rain Light Rain
11:35 AM 39.2 °F - 39.2 °F 100% 29.96 in 4.0 mi Calm Calm - N/A Rain Light Rain
11:55 AM 39.2 °F 37.0 °F 39.2 °F 100% 29.96 in 5.0 mi SW 3.5 mph - N/A Rain Light Rain
12:15 PM 39.2 °F - 39.2 °F 100% 29.94 in 5.0 mi Calm Calm - N/A Rain Rain
12:35 PM 39.2 °F 33.0 °F 35.6 °F 87% 29.95 in 5.0 mi ENE 9.2 mph - N/A Rain Rain
12:55 PM 37.4 °F - 35.6 °F 93% 29.95 in 8.0 mi Calm Calm - N/A Rain Heavy Rain
1:15 PM 37.4 °F 34.9 °F 35.6 °F 93% 29.92 in 8.0 mi East 3.5 mph - N/A Rain Heavy Rain
1:35 PM 37.4 °F - 35.6 °F 93% 29.94 in 7.0 mi Calm Calm - N/A Rain Heavy Rain
1:55 PM 35.6 °F 32.8 °F 33.8 °F 93% 29.95 in 6.0 mi Variable 3.5 mph - N/A Rain Heavy Rain
2:15 PM 35.6 °F 31.7 °F 33.8 °F 93% 29.94 in 5.0 mi East 4.6 mph - N/A Rain Rain
2:35 PM 33.8 °F 30.8 °F 33.8 °F 100% 29.93 in 4.0 mi East 3.5 mph - N/A Rain Light Rain
2:55 PM 35.6 °F - 33.8 °F 93% 29.93 in 7.0 mi Calm Calm - N/A Rain Heavy Rain
3:15 PM 33.8 °F 29.6 °F 33.8 °F 100% 29.96 in 6.0 mi WNW 4.6 mph - N/A Rain Rain
3:35 PM 33.8 °F - 33.8 °F 100% 29.95 in 6.0 mi Calm Calm - N/A Rain Rain
3:55 PM 33.8 °F - 33.8 °F 100% 29.97 in 8.0 mi Calm Calm - N/A Rain Light Rain
4:15 PM 33.8 °F 29.6 °F 33.8 °F 100% 30.00 in 6.0 mi SW 4.6 mph - N/A Rain Light Rain
4:35 PM 32.0 °F 25.6 °F 32.0 °F 100% 29.99 in 5.0 mi WSW 6.9 mph - N/A Rain Light Rain
4:55 PM 32.0 °F 27.5 °F 30.2 °F 93% 30.00 in 5.0 mi SSW 4.6 mph - N/A Rain Light Rain
5:55 PM 30.2 °F - 30.2 °F 100% 30.01 in 0.8 mi Calm Calm - N/A Snow Light Snow
6:35 PM 30.2 °F 25.4 °F 30.2 °F 100% 29.98 in 4.0 mi Variable 4.6 mph - N/A Rain Light Freezing Rain
8:55 PM 32.0 °F 24.8 °F 30.2 °F 93% 30.14 in 10.0 mi West 8.1 mph - N/A   Overcast
9:15 PM 32.0 °F 24.2 °F 30.2 °F 93% 30.17 in 10.0 mi WSW 9.2 mph - N/A   Overcast
9:35 PM 32.0 °F 26.4 °F 30.2 °F 93% 30.18 in 10.0 mi West 5.8 mph - N/A   Overcast
9:55 PM 32.0 °F 25.6 °F 30.2 °F 93% 30.21 in 10.0 mi Variable 6.9 mph - N/A   Overcast
10:15 PM 32.0 °F 25.6 °F 30.2 °F 93% 30.22 in 10.0 mi WNW 6.9 mph - N/A   Overcast
10:35 PM 32.0 °F 23.6 °F 30.2 °F 93% 30.23 in 10.0 mi WNW 10.4 mph - N/A   Overcast
10:55 PM 32.0 °F 26.4 °F 28.4 °F 87% 30.24 in 10.0 mi NW 5.8 mph - N/A   Overcast